Time,TemperatureF,DewpointF,PressureIn,WindDirection,WindDirectionDegrees,WindSpeedMPH,WindSpeedGustMPH,Humidity,HourlyPrecipIn,Conditions,Clouds,dailyrainin,SolarRadiationWatts/m^2,SoftwareType,DateUTC
2013-02-01 00:21:00,38.0,38.0,-100.00,SSE,155,5.0,9.0,100,0.00,,,0.50,0.000000,,2013-02-01 09:21:00,
2013-02-01 00:32:00,38.0,38.0,-100.00,SSE,155,5.0,9.0,100,0.00,,,0.50,0.000000,,2013-02-01 09:32:00,
2013-02-01 00:41:00,38.0,38.0,-100.00,SSE,155,5.0,9.0,100,0.00,,,0.50,0.000000,,2013-02-01 09:41:00,
2013-02-01 00:51:00,38.0,38.0,-100.00,SSE,155,5.0,9.0,100,0.00,,,0.50,0.000000,,2013-02-01 09:51:00,
2013-02-01 01:21:00,38.0,38.0,-100.00,SSE,166,4.0,8.0,100,0.00,,,0.46,0.000000,,2013-02-01 10:21:00,
2013-02-01 01:31:00,38.0,38.0,-100.00,SSE,166,4.0,8.0,100,0.00,,,0.46,0.000000,,2013-02-01 10:31:00,
2013-02-01 01:42:00,38.0,38.0,-100.00,SSE,166,4.0,8.0,100,0.00,,,0.46,0.000000,,2013-02-01 10:42:00,
2013-02-01 01:52:00,38.0,38.0,-100.00,SSE,166,4.0,8.0,100,0.00,,,0.46,0.000000,,2013-02-01 10:52:00,
2013-02-01 02:22:00,38.0,38.0,-100.00,SE,139,2.0,6.0,100,0.02,,,0.45,0.000000,,2013-02-01 11:22:00,
2013-02-01 02:32:00,38.0,38.0,-100.00,SE,139,2.0,6.0,100,0.02,,,0.45,0.000000,,2013-02-01 11:32:00,
2013-02-01 02:41:00,38.0,38.0,-100.00,SE,139,2.0,6.0,100,0.02,,,0.45,0.000000,,2013-02-01 11:41:00,
2013-02-01 02:53:00,38.0,38.0,-100.00,SE,139,2.0,6.0,100,0.02,,,0.45,0.000000,,2013-02-01 11:53:00,
2013-02-01 03:22:00,38.0,38.0,-100.00,ESE,115,4.0,8.0,100,0.03,,,0.46,0.000000,,2013-02-01 12:22:00,
2013-02-01 03:32:00,38.0,38.0,-100.00,ESE,115,4.0,8.0,100,0.03,,,0.46,0.000000,,2013-02-01 12:32:00,
2013-02-01 03:42:00,38.0,38.0,-100.00,ESE,115,4.0,8.0,100,0.03,,,0.46,0.000000,,2013-02-01 12:42:00,
2013-02-01 03:52:00,38.0,38.0,-100.00,ESE,115,4.0,8.0,100,0.03,,,0.46,0.000000,,2013-02-01 12:52:00,
2013-02-01 04:21:00,38.0,38.0,-100.00,SE,124,5.0,10.0,100,0.03,,,0.47,0.000000,,2013-02-01 13:21:00,
2013-02-01 04:32:00,38.0,38.0,-100.00,SE,124,5.0,10.0,100,0.03,,,0.47,0.000000,,2013-02-01 13:32:00,
2013-02-01 04:42:00,38.0,38.0,-100.00,SE,124,5.0,10.0,100,0.03,,,0.47,0.000000,,2013-02-01 13:42:00,
2013-02-01 04:52:00,38.0,38.0,-100.00,SE,124,5.0,10.0,100,0.03,,,0.47,0.000000,,2013-02-01 13:52:00,
2013-02-01 05:21:00,38.0,38.0,-100.00,SE,128,4.0,8.0,100,0.06,,,0.50,0.000000,,2013-02-01 14:21:00,
2013-02-01 05:32:00,38.0,38.0,-100.00,SE,128,4.0,8.0,100,0.06,,,0.50,0.000000,,2013-02-01 14:32:00,
2013-02-01 05:42:00,38.0,38.0,-100.00,SE,128,4.0,8.0,100,0.06,,,0.50,0.000000,,2013-02-01 14:42:00,
2013-02-01 05:52:00,38.0,38.0,-100.00,SE,128,4.0,8.0,100,0.06,,,0.50,0.000000,,2013-02-01 14:52:00,
2013-02-01 06:21:00,37.0,37.0,-100.00,SE,131,5.0,8.0,100,0.02,,,0.47,0.000000,,2013-02-01 15:21:00,
2013-02-01 06:32:00,37.0,37.0,-100.00,SE,131,5.0,8.0,100,0.02,,,0.47,0.000000,,2013-02-01 15:32:00,
2013-02-01 06:42:00,37.0,37.0,-100.00,SE,131,5.0,8.0,100,0.02,,,0.47,0.000000,,2013-02-01 15:42:00,
2013-02-01 06:51:00,37.0,37.0,-100.00,SE,131,5.0,8.0,100,0.02,,,0.47,0.000000,,2013-02-01 15:51:00,
2013-02-01 07:22:00,37.0,37.0,-100.00,ESE,118,4.0,9.0,100,0.03,,,-99.99,0.000000,,2013-02-01 16:22:00,
2013-02-01 07:32:00,37.0,37.0,-100.00,ESE,118,4.0,9.0,100,0.03,,,-99.99,0.000000,,2013-02-01 16:32:00,
2013-02-01 07:42:00,37.0,37.0,-100.00,ESE,118,4.0,9.0,100,0.03,,,-99.99,0.000000,,2013-02-01 16:42:00,
2013-02-01 07:52:00,37.0,37.0,-100.00,ESE,118,4.0,9.0,100,0.03,,,-99.99,0.000000,,2013-02-01 16:52:00,
2013-02-01 08:22:00,37.0,37.0,-100.00,SE,133,4.0,8.0,100,0.03,,,0.46,0.000000,,2013-02-01 17:22:00,
2013-02-01 08:32:00,37.0,37.0,-100.00,SE,133,4.0,8.0,100,0.03,,,0.46,0.000000,,2013-02-01 17:32:00,
2013-02-01 08:42:00,37.0,37.0,-100.00,SE,133,4.0,8.0,100,0.03,,,0.46,0.000000,,2013-02-01 17:42:00,
2013-02-01 08:52:00,37.0,37.0,-100.00,SE,133,4.0,8.0,100,0.03,,,0.46,0.000000,,2013-02-01 17:52:00,
2013-02-01 09:22:00,37.0,37.0,-100.00,ESE,102,3.0,8.0,100,0.03,,,0.43,8.000000,,2013-02-01 18:22:00,
2013-02-01 09:32:00,37.0,37.0,-100.00,ESE,102,3.0,8.0,100,0.03,,,0.43,8.000000,,2013-02-01 18:32:00,
2013-02-01 09:42:00,37.0,37.0,-100.00,ESE,102,3.0,8.0,100,0.03,,,0.43,8.000000,,2013-02-01 18:42:00,
2013-02-01 09:52:00,37.0,37.0,-100.00,ESE,102,3.0,8.0,100,0.03,,,0.43,8.000000,,2013-02-01 18:52:00,
2013-02-01 10:21:00,38.0,38.0,-100.00,South,177,1.0,6.0,100,0.01,,,-99.99,42.000000,,2013-02-01 19:21:00,
2013-02-01 10:32:00,38.0,38.0,-100.00,South,177,1.0,6.0,100,0.01,,,-99.99,42.000000,,2013-02-01 19:32:00,
2013-02-01 10:41:00,38.0,38.0,-100.00,South,177,1.0,6.0,100,0.01,,,-99.99,42.000000,,2013-02-01 19:41:00,
2013-02-01 10:51:00,38.0,38.0,-100.00,South,177,1.0,6.0,100,0.01,,,-99.99,42.000000,,2013-02-01 19:51:00,
2013-02-01 11:21:00,39.0,39.0,-100.00,SE,139,3.0,7.0,100,0.00,,,0.37,66.000000,,2013-02-01 20:21:00,
2013-02-01 11:31:00,39.0,39.0,-100.00,SE,139,3.0,7.0,100,0.00,,,0.37,66.000000,,2013-02-01 20:31:00,
2013-02-01 11:41:00,39.0,39.0,-100.00,SE,139,3.0,7.0,100,0.00,,,0.37,66.000000,,2013-02-01 20:41:00,
2013-02-01 11:52:00,39.0,39.0,-100.00,SE,139,3.0,7.0,100,0.00,,,0.37,66.000000,,2013-02-01 20:52:00,
2013-02-01 12:21:00,39.0,39.0,-100.00,SE,131,5.0,10.0,100,0.02,,,0.38,65.000000,,2013-02-01 21:21:00,
2013-02-01 12:31:00,39.0,39.0,-100.00,SE,131,5.0,10.0,100,0.02,,,0.38,65.000000,,2013-02-01 21:31:00,
2013-02-01 12:41:00,39.0,39.0,-100.00,SE,131,5.0,10.0,100,0.02,,,0.38,65.000000,,2013-02-01 21:41:00,
2013-02-01 12:52:00,39.0,39.0,-100.00,SE,131,5.0,10.0,100,0.02,,,0.38,65.000000,,2013-02-01 21:52:00,
2013-02-01 13:21:00,39.0,39.0,-100.00,SE,137,4.0,11.0,100,0.02,,,0.38,55.000000,,2013-02-01 22:21:00,
2013-02-01 13:32:00,39.0,39.0,-100.00,SE,137,4.0,11.0,100,0.02,,,0.38,55.000000,,2013-02-01 22:32:00,
2013-02-01 13:42:00,39.0,39.0,-100.00,SE,137,4.0,11.0,100,0.02,,,0.38,55.000000,,2013-02-01 22:42:00,
2013-02-01 13:51:00,39.0,39.0,-100.00,SE,137,4.0,11.0,100,0.02,,,0.38,55.000000,,2013-02-01 22:51:00,
2013-02-01 14:11:00,39.0,39.0,-100.00,SSE,152,3.0,8.0,100,0.03,,,0.39,37.000000,,2013-02-01 23:11:00,
2013-02-01 14:21:00,39.0,39.0,-100.00,SSE,152,3.0,8.0,100,0.03,,,0.39,37.000000,,2013-02-01 23:21:00,
2013-02-01 14:31:00,39.0,39.0,-100.00,SSE,152,3.0,8.0,100,0.03,,,0.39,37.000000,,2013-02-01 23:31:00,
2013-02-01 14:41:00,39.0,39.0,-100.00,SSE,152,3.0,8.0,100,0.03,,,0.39,37.000000,,2013-02-01 23:41:00,
2013-02-01 14:52:00,39.0,39.0,-100.00,SSE,152,3.0,8.0,100,0.03,,,0.39,37.000000,,2013-02-01 23:52:00,
2013-02-01 15:21:00,39.0,39.0,-100.00,SE,139,4.0,9.0,99,0.02,,,0.40,30.000000,,2013-02-02 00:21:00,
2013-02-01 15:32:00,39.0,39.0,-100.00,SE,139,4.0,9.0,99,0.02,,,0.40,30.000000,,2013-02-02 00:32:00,
2013-02-01 15:41:00,39.0,39.0,-100.00,SE,139,4.0,9.0,99,0.02,,,0.40,30.000000,,2013-02-02 00:41:00,
2013-02-01 15:52:00,39.0,39.0,-100.00,SE,139,4.0,9.0,99,0.02,,,0.40,30.000000,,2013-02-02 00:52:00,
2013-02-01 16:11:00,39.0,39.0,-100.00,SE,124,6.0,12.0,99,0.01,,,0.40,18.000000,,2013-02-02 01:11:00,
2013-02-01 16:21:00,39.0,39.0,-100.00,SE,124,6.0,12.0,99,0.01,,,0.40,18.000000,,2013-02-02 01:21:00,
2013-02-01 16:31:00,39.0,39.0,-100.00,SE,124,6.0,12.0,99,0.01,,,0.40,18.000000,,2013-02-02 01:31:00,
2013-02-01 16:41:00,39.0,39.0,-100.00,SE,124,6.0,12.0,99,0.01,,,0.40,18.000000,,2013-02-02 01:41:00,
2013-02-01 16:52:00,39.0,39.0,-100.00,SE,124,6.0,12.0,99,0.01,,,0.40,18.000000,,2013-02-02 01:52:00,
2013-02-01 17:21:00,38.0,38.0,-100.00,SE,137,3.0,9.0,99,0.00,,,0.39,2.000000,,2013-02-02 02:21:00,
2013-02-01 17:31:00,38.0,38.0,-100.00,SE,137,3.0,9.0,99,0.00,,,0.39,2.000000,,2013-02-02 02:31:00,
2013-02-01 17:41:00,38.0,38.0,-100.00,SE,137,3.0,9.0,99,0.00,,,0.39,2.000000,,2013-02-02 02:41:00,
2013-02-01 17:52:00,38.0,38.0,-100.00,SE,137,3.0,9.0,99,0.00,,,0.39,2.000000,,2013-02-02 02:52:00,
2013-02-01 18:21:00,39.0,39.0,-100.00,SE,138,5.0,9.0,100,0.00,,,0.38,0.000000,,2013-02-02 03:21:00,
2013-02-01 18:32:00,39.0,39.0,-100.00,SE,138,5.0,9.0,100,0.00,,,0.38,0.000000,,2013-02-02 03:32:00,
2013-02-01 18:42:00,39.0,39.0,-100.00,SE,138,5.0,9.0,100,0.00,,,0.38,0.000000,,2013-02-02 03:42:00,
2013-02-01 18:51:00,39.0,39.0,-100.00,SE,138,5.0,9.0,100,0.00,,,0.38,0.000000,,2013-02-02 03:51:00,
2013-02-01 19:21:00,39.0,39.0,-100.00,SE,140,6.0,11.0,100,0.00,,,-99.99,0.000000,,2013-02-02 04:21:00,
2013-02-01 19:32:00,39.0,39.0,-100.00,SE,140,6.0,11.0,100,0.00,,,-99.99,0.000000,,2013-02-02 04:32:00,
2013-02-01 19:41:00,39.0,39.0,-100.00,SE,140,6.0,11.0,100,0.00,,,-99.99,0.000000,,2013-02-02 04:41:00,
2013-02-01 19:51:00,39.0,39.0,-100.00,SE,140,6.0,11.0,100,0.00,,,-99.99,0.000000,,2013-02-02 04:51:00,
2013-02-01 20:22:00,39.0,39.0,-100.00,SSE,148,4.0,10.0,100,0.02,,,0.39,0.000000,,2013-02-02 05:22:00,
2013-02-01 20:33:00,39.0,39.0,-100.00,SSE,148,4.0,10.0,100,0.02,,,0.39,0.000000,,2013-02-02 05:33:00,
2013-02-01 20:41:00,39.0,39.0,-100.00,SSE,148,4.0,10.0,100,0.02,,,0.39,0.000000,,2013-02-02 05:41:00,
2013-02-01 20:52:00,39.0,39.0,-100.00,SSE,148,4.0,10.0,100,0.02,,,0.39,0.000000,,2013-02-02 05:52:00,
2013-02-01 21:21:00,40.0,40.0,-100.00,SE,125,2.0,8.0,100,0.02,,,0.41,0.000000,,2013-02-02 06:21:00,
2013-02-01 21:31:00,40.0,40.0,-100.00,SE,125,2.0,8.0,100,0.02,,,0.41,0.000000,,2013-02-02 06:31:00,
2013-02-01 21:41:00,40.0,40.0,-100.00,SE,125,2.0,8.0,100,0.02,,,0.41,0.000000,,2013-02-02 06:41:00,
2013-02-01 21:51:00,40.0,40.0,-100.00,SE,125,2.0,8.0,100,0.02,,,0.41,0.000000,,2013-02-02 06:51:00,
2013-02-01 22:21:00,40.0,40.0,-100.00,SSE,153,4.0,11.0,100,0.03,,,0.43,0.000000,,2013-02-02 07:21:00,
2013-02-01 22:31:00,40.0,40.0,-100.00,SSE,153,4.0,11.0,100,0.03,,,0.43,0.000000,,2013-02-02 07:31:00,
2013-02-01 22:41:00,40.0,40.0,-100.00,SSE,153,4.0,11.0,100,0.03,,,0.43,0.000000,,2013-02-02 07:41:00,
2013-02-01 22:51:00,40.0,40.0,-100.00,SSE,153,4.0,11.0,100,0.03,,,0.43,0.000000,,2013-02-02 07:51:00,
2013-02-01 23:21:00,40.0,40.0,-100.00,SE,141,4.0,9.0,100,0.03,,,0.46,0.000000,,2013-02-02 08:21:00,
2013-02-01 23:31:00,40.0,40.0,-100.00,SE,141,4.0,9.0,100,0.03,,,0.46,0.000000,,2013-02-02 08:31:00,
2013-02-01 23:41:00,40.0,40.0,-100.00,SE,141,4.0,9.0,100,0.03,,,0.46,0.000000,,2013-02-02 08:41:00,
2013-02-01 23:52:00,40.0,40.0,-100.00,SE,141,4.0,9.0,100,0.03,,,0.46,0.000000,,2013-02-02 08:52:00,